SWA3550 KTYS-KDEN

Flight info

Callsign SWA3550
Flight time 2h 59m
Altitude 38000
Route LVT KM42O PXV STL PWE DRABS BRWRY LAWGR4
Aircraft B38M/M-SDE1FGHILORVWXY/HB1

Departure

Time 2026-05-06 21:42
Airport McGhee Tyson Airport (KTYS)

Arrival

Time 2026-05-07 00:42
Airport Denver International Airport (KDEN)
Time Latitude Longitude Altitude Speed Heading
2026-05-06 21:27 35.80572 -83.99172 986 ft 0 kts 44°
2026-05-06 21:34 35.80560 -83.99186 986 ft 3 kts 44°
2026-05-06 21:34 35.80557 -83.99190 982 ft 0 kts 44°
2026-05-06 21:35 35.80549 -83.99199 978 ft 2 kts 44°
2026-05-06 21:35 35.80538 -83.99214 986 ft 1 kts 54°
2026-05-06 21:37 35.80540 -83.99213 986 ft 1 kts 28°
2026-05-06 21:37 35.80544 -83.99218 986 ft 1 kts 304°
2026-05-06 21:38 35.80544 -83.99246 976 ft 7 kts 271°
2026-05-06 21:38 35.80580 -83.99345 979 ft 19 kts 306°
2026-05-06 21:38 35.80693 -83.99393 976 ft 21 kts 35°
2026-05-06 21:38 35.80800 -83.99266 975 ft 22 kts 41°
2026-05-06 21:39 35.80913 -83.99132 981 ft 23 kts 45°
2026-05-06 21:39 35.81030 -83.98989 983 ft 24 kts 45°
2026-05-06 21:39 35.81151 -83.98835 975 ft 26 kts 46°
2026-05-06 21:39 35.81284 -83.98679 987 ft 27 kts 45°
2026-05-06 21:40 35.81420 -83.98511 986 ft 28 kts 44°
2026-05-06 21:40 35.81561 -83.98341 981 ft 28 kts 42°
2026-05-06 21:40 35.81729 -83.98257 983 ft 27 kts 332°
2026-05-06 21:40 35.81892 -83.98387 978 ft 29 kts 326°
2026-05-06 21:41 35.82041 -83.98378 978 ft 23 kts 45°
2026-05-06 21:41 35.82159 -83.98230 979 ft 25 kts 41°
2026-05-06 21:41 35.82256 -83.98299 975 ft 20 kts 262°
2026-05-06 21:41 35.82147 -83.98460 983 ft 47 kts 225°
2026-05-06 21:42 35.81735 -83.98967 982 ft 120 kts 225°
2026-05-06 21:42 35.81003 -83.99872 1063 ft 171 kts 227°
2026-05-06 21:42 35.80233 -84.01036 1723 ft 178 kts 231°
2026-05-06 21:42 35.79510 -84.02268 2726 ft 173 kts 236°
2026-05-06 21:43 35.78813 -84.03535 3445 ft 189 kts 238°
2026-05-06 21:43 35.78171 -84.05067 3836 ft 217 kts 260°
2026-05-06 21:43 35.78437 -84.06952 4406 ft 240 kts 297°
2026-05-06 21:43 35.79690 -84.08432 5154 ft 260 kts 319°
2026-05-06 21:44 35.81003 -84.09904 6183 ft 252 kts 304°
2026-05-06 21:44 35.82133 -84.11557 7164 ft 254 kts 306°
2026-05-06 21:44 35.83305 -84.13202 8109 ft 256 kts 306°
2026-05-06 21:44 35.84497 -84.14855 9055 ft 260 kts 306°
2026-05-06 21:45 35.85709 -84.16524 9959 ft 263 kts 306°
2026-05-06 21:45 35.86954 -84.18229 10608 ft 276 kts 306°
2026-05-06 21:45 35.88281 -84.20058 10981 ft 296 kts 306°
2026-05-06 21:45 35.89701 -84.22020 11324 ft 316 kts 306°
2026-05-06 21:46 35.91203 -84.24094 11744 ft 331 kts 306°
2026-05-06 21:46 35.92765 -84.26241 12366 ft 339 kts 306°
2026-05-06 21:46 35.94347 -84.28401 13164 ft 341 kts 306°
2026-05-06 21:46 35.95948 -84.30585 13896 ft 344 kts 306°
2026-05-06 21:47 35.97560 -84.32782 14628 ft 346 kts 306°
2026-05-06 21:47 35.99181 -84.34991 15351 ft 348 kts 305°
2026-05-06 21:47 36.00805 -84.37205 16082 ft 349 kts 304°
2026-05-06 21:47 36.02439 -84.39434 16794 ft 350 kts 304°
2026-05-06 21:48 36.04077 -84.41670 17495 ft 352 kts 304°
2026-05-06 21:48 36.05723 -84.43916 18177 ft 353 kts 303°
2026-05-06 21:48 36.07376 -84.46173 18756 ft 355 kts 303°
2026-05-06 21:48 36.09040 -84.48446 19298 ft 358 kts 303°
2026-05-06 21:49 36.10719 -84.50743 19791 ft 362 kts 303°
2026-05-06 21:49 36.12416 -84.53064 20312 ft 365 kts 303°
2026-05-06 21:49 36.14125 -84.55403 20840 ft 368 kts 303°
2026-05-06 21:49 36.15848 -84.57766 21333 ft 372 kts 303°
2026-05-06 21:50 36.17590 -84.60153 21829 ft 375 kts 303°
2026-05-06 21:50 36.19347 -84.62564 22305 ft 379 kts 303°
2026-05-06 21:50 36.21100 -84.64972 22786 ft 382 kts 303°
2026-05-06 21:50 36.22910 -84.67457 23272 ft 385 kts 303°
2026-05-06 21:51 36.24689 -84.69904 23679 ft 389 kts 303°
2026-05-06 21:51 36.26503 -84.72401 24079 ft 392 kts 303°
2026-05-06 21:51 36.28332 -84.74920 24463 ft 394 kts 303°
2026-05-06 21:51 36.30170 -84.77453 24869 ft 397 kts 303°
2026-05-06 21:52 36.32021 -84.80006 25262 ft 399 kts 302°
2026-05-06 21:52 36.33884 -84.82576 25643 ft 402 kts 302°
2026-05-06 21:52 36.35757 -84.85164 26018 ft 405 kts 302°
2026-05-06 21:52 36.37645 -84.87774 26382 ft 407 kts 302°
2026-05-06 21:53 36.39541 -84.90396 26745 ft 410 kts 302°
2026-05-06 21:53 36.41447 -84.93034 27106 ft 412 kts 302°
2026-05-06 21:53 36.43365 -84.95691 27458 ft 414 kts 301°
2026-05-06 21:53 36.45292 -84.98364 27828 ft 416 kts 301°
2026-05-06 21:54 36.47230 -85.01052 28166 ft 419 kts 301°
2026-05-06 21:54 36.49177 -85.03756 28518 ft 421 kts 301°
2026-05-06 21:54 36.51136 -85.06479 28858 ft 423 kts 301°
2026-05-06 21:54 36.53100 -85.09211 29198 ft 425 kts 301°
2026-05-06 21:55 36.55076 -85.11960 29557 ft 426 kts 301°
2026-05-06 21:55 36.57048 -85.14707 30013 ft 425 kts 300°
2026-05-06 21:55 36.58889 -85.17531 30410 ft 412 kts 292°
2026-05-06 21:55 36.60385 -85.20527 30931 ft 406 kts 292°
2026-05-06 21:56 36.61884 -85.23478 31458 ft 401 kts 292°
2026-05-06 21:56 36.63359 -85.26398 32010 ft 395 kts 291°
2026-05-06 21:56 36.64807 -85.29277 32591 ft 389 kts 291°
2026-05-06 21:56 36.66232 -85.32111 33191 ft 383 kts 291°
2026-05-06 21:57 36.67632 -85.34898 33796 ft 377 kts 291°
2026-05-06 21:57 36.69009 -85.37643 34325 ft 371 kts 291°
2026-05-06 21:57 36.70366 -85.40349 34792 ft 366 kts 291°
2026-05-06 21:57 36.71704 -85.43019 35265 ft 361 kts 291°
2026-05-06 21:58 36.73028 -85.45664 35672 ft 358 kts 291°
2026-05-06 21:58 36.74341 -85.48289 36068 ft 355 kts 291°
2026-05-06 21:58 36.75645 -85.50897 36423 ft 353 kts 291°
2026-05-06 21:58 36.76940 -85.53491 36756 ft 352 kts 291°
2026-05-06 21:59 36.78229 -85.56073 37082 ft 350 kts 291°
2026-05-06 21:59 36.79508 -85.58638 37384 ft 347 kts 291°
2026-05-06 21:59 36.80778 -85.61186 37711 ft 345 kts 291°
2026-05-06 21:59 36.82038 -85.63719 37958 ft 343 kts 291°
2026-05-06 22:00 36.84533 -85.68735 37989 ft 340 kts 291°
2026-05-06 22:00 36.87020 -85.73743 37983 ft 339 kts 291°
2026-05-06 22:01 36.89506 -85.78755 37993 ft 339 kts 291°
2026-05-06 22:01 36.91986 -85.83765 37994 ft 339 kts 290°
2026-05-06 22:02 36.94464 -85.88775 37995 ft 339 kts 290°
2026-05-06 22:02 36.96936 -85.93781 38033 ft 338 kts 290°
2026-05-06 22:03 36.99397 -85.98771 38156 ft 336 kts 290°
2026-05-06 22:03 37.00711 -86.01222 38037 ft 339 kts 292°
2026-05-06 22:03 37.02036 -86.03659 38032 ft 340 kts 292°
2026-05-06 22:04 37.04687 -86.08565 38031 ft 341 kts 292°
2026-05-06 22:04 37.07334 -86.13479 38022 ft 340 kts 292°
2026-05-06 22:05 37.09981 -86.18400 38016 ft 341 kts 292°
2026-05-06 22:05 37.12625 -86.23322 37996 ft 340 kts 292°
2026-05-06 22:06 37.15267 -86.28250 37996 ft 341 kts 292°
2026-05-06 22:06 37.17908 -86.33181 37997 ft 341 kts 292°
2026-05-06 22:07 37.20547 -86.38116 38000 ft 341 kts 292°
2026-05-06 22:07 37.23184 -86.43056 38008 ft 341 kts 292°
2026-05-06 22:08 37.25819 -86.47999 38016 ft 341 kts 292°
2026-05-06 22:08 37.28453 -86.52948 38015 ft 341 kts 291°
2026-05-06 22:09 37.31070 -86.57871 38019 ft 341 kts 292°
2026-05-06 22:09 37.33701 -86.62827 38021 ft 341 kts 291°
2026-05-06 22:10 37.36331 -86.67792 38029 ft 342 kts 291°
2026-05-06 22:10 37.38964 -86.72765 38026 ft 341 kts 291°
2026-05-06 22:11 37.41592 -86.77739 38023 ft 341 kts 292°
2026-05-06 22:11 37.44218 -86.82719 38021 ft 342 kts 291°
2026-05-06 22:12 37.46844 -86.87703 38034 ft 342 kts 291°
2026-05-06 22:12 37.49467 -86.92690 38038 ft 342 kts 291°
2026-05-06 22:13 37.52089 -86.97681 38040 ft 342 kts 291°
2026-05-06 22:13 37.54708 -87.02677 38044 ft 342 kts 291°
2026-05-06 22:14 37.56883 -87.06828 38047 ft 341 kts 291°
2026-05-06 22:14 37.59497 -87.11826 38053 ft 341 kts 291°
2026-05-06 22:15 37.62111 -87.16832 38044 ft 341 kts 291°
2026-05-06 22:15 37.64720 -87.21838 38054 ft 341 kts 291°
2026-05-06 22:16 37.67328 -87.26845 38051 ft 341 kts 291°
2026-05-06 22:16 37.69931 -87.31855 38054 ft 341 kts 291°
2026-05-06 22:17 37.72533 -87.36866 38047 ft 341 kts 291°
2026-05-06 22:17 37.75133 -87.41883 38039 ft 341 kts 291°
2026-05-06 22:18 37.77729 -87.46900 38049 ft 341 kts 291°
2026-05-06 22:18 37.80324 -87.51923 38060 ft 341 kts 291°
2026-05-06 22:19 37.82915 -87.56945 38062 ft 341 kts 291°
2026-05-06 22:19 37.85504 -87.61970 38059 ft 341 kts 291°
2026-05-06 22:20 37.88090 -87.66995 38063 ft 341 kts 291°
2026-05-06 22:20 37.90675 -87.72026 38063 ft 341 kts 291°
2026-05-06 22:21 37.93103 -87.77088 38056 ft 331 kts 284°
2026-05-06 22:21 37.95030 -87.82403 38057 ft 332 kts 285°
2026-05-06 22:22 37.96946 -87.87730 38057 ft 332 kts 285°
2026-05-06 22:22 37.98852 -87.93061 38052 ft 332 kts 285°
2026-05-06 22:23 38.00754 -87.98396 38054 ft 332 kts 285°
2026-05-06 22:23 38.02655 -88.03735 38052 ft 332 kts 285°
2026-05-06 22:24 38.04552 -88.09076 38049 ft 332 kts 285°
2026-05-06 22:24 38.06446 -88.14417 38055 ft 332 kts 285°
2026-05-06 22:25 38.08339 -88.19765 38053 ft 332 kts 285°
2026-05-06 22:25 38.10229 -88.25114 38053 ft 332 kts 285°
2026-05-06 22:26 38.12116 -88.30462 38055 ft 332 kts 285°
2026-05-06 22:26 38.14000 -88.35814 38052 ft 332 kts 285°
2026-05-06 22:27 38.15882 -88.41168 38055 ft 332 kts 285°
2026-05-06 22:27 38.17764 -88.46534 38056 ft 332 kts 285°
2026-05-06 22:28 38.19644 -88.51902 38056 ft 333 kts 285°
2026-05-06 22:28 38.21512 -88.57246 38060 ft 333 kts 285°
2026-05-06 22:29 38.23389 -88.62626 38059 ft 333 kts 285°
2026-05-06 22:29 38.25265 -88.68011 38066 ft 333 kts 285°
2026-05-06 22:30 38.27139 -88.73403 38065 ft 333 kts 285°
2026-05-06 22:30 38.29011 -88.78798 38068 ft 333 kts 285°
2026-05-06 22:31 38.30880 -88.84193 38071 ft 334 kts 285°
2026-05-06 22:31 38.32749 -88.89599 38067 ft 333 kts 285°
2026-05-06 22:32 38.34616 -88.95007 38075 ft 334 kts 285°
2026-05-06 22:32 38.36479 -89.00417 38068 ft 333 kts 285°
2026-05-06 22:33 38.38341 -89.05834 38064 ft 334 kts 285°
2026-05-06 22:33 38.40202 -89.11256 38069 ft 334 kts 285°
2026-05-06 22:34 38.42059 -89.16676 38064 ft 334 kts 285°
2026-05-06 22:34 38.43915 -89.22105 38061 ft 334 kts 285°
2026-05-06 22:35 38.45769 -89.27537 38066 ft 334 kts 285°
2026-05-06 22:35 38.47622 -89.32977 38057 ft 334 kts 285°
2026-05-06 22:36 38.49471 -89.38416 38056 ft 334 kts 285°
2026-05-06 22:36 38.51320 -89.43865 38061 ft 334 kts 285°
2026-05-06 22:37 38.53165 -89.49313 38056 ft 334 kts 285°
2026-05-06 22:37 38.55010 -89.54768 38064 ft 334 kts 285°
2026-05-06 22:38 38.56851 -89.60225 38060 ft 335 kts 285°
2026-05-06 22:38 38.58691 -89.65686 38059 ft 334 kts 285°
2026-05-06 22:39 38.60515 -89.71112 38062 ft 335 kts 285°
2026-05-06 22:39 38.62350 -89.76583 38056 ft 335 kts 285°
2026-05-06 22:40 38.64184 -89.82058 38051 ft 335 kts 285°
2026-05-06 22:40 38.66015 -89.87534 38055 ft 335 kts 285°
2026-05-06 22:41 38.68759 -89.95762 38060 ft 335 kts 285°
2026-05-06 22:42 38.70586 -90.01255 38066 ft 335 kts 285°
2026-05-06 22:42 38.72409 -90.06744 38071 ft 335 kts 285°
2026-05-06 22:43 38.74230 -90.12240 38070 ft 335 kts 285°
2026-05-06 22:43 38.76051 -90.17745 38075 ft 336 kts 285°
2026-05-06 22:44 38.77870 -90.23256 38073 ft 336 kts 285°
2026-05-06 22:44 38.79691 -90.28776 38077 ft 336 kts 285°
2026-05-06 22:45 38.81511 -90.34305 38070 ft 337 kts 285°
2026-05-06 22:45 38.83329 -90.39842 38076 ft 337 kts 285°
2026-05-06 22:46 38.85148 -90.45390 38062 ft 338 kts 285°
2026-05-06 22:46 38.86736 -90.51018 38065 ft 335 kts 282°
2026-05-06 22:47 38.88206 -90.56689 38065 ft 335 kts 282°
2026-05-06 22:47 38.89681 -90.62328 38062 ft 336 kts 282°
2026-05-06 22:48 38.91170 -90.68016 38063 ft 336 kts 282°
2026-05-06 22:48 38.92658 -90.73717 38069 ft 337 kts 282°
2026-05-06 22:49 38.94146 -90.79425 38068 ft 337 kts 282°
2026-05-06 22:49 38.95633 -90.85145 38071 ft 338 kts 282°
2026-05-06 22:50 38.97118 -90.90871 38071 ft 338 kts 282°
2026-05-06 22:50 38.98602 -90.96605 38072 ft 338 kts 282°
2026-05-06 22:51 39.00086 -91.02351 38075 ft 339 kts 282°
2026-05-06 22:51 39.01567 -91.08101 38075 ft 339 kts 282°
2026-05-06 22:52 39.03047 -91.13858 38075 ft 339 kts 282°
2026-05-06 22:52 39.04525 -91.19624 38075 ft 339 kts 282°
2026-05-06 22:53 39.06001 -91.25392 38080 ft 340 kts 282°
2026-05-06 22:53 39.07474 -91.31166 38087 ft 340 kts 282°
2026-05-06 22:54 39.08945 -91.36943 38078 ft 340 kts 282°
2026-05-06 22:54 39.10402 -91.42681 38089 ft 340 kts 282°
2026-05-06 22:55 39.11868 -91.48467 38087 ft 340 kts 282°
2026-05-06 22:55 39.13330 -91.54250 38092 ft 340 kts 282°
2026-05-06 22:56 39.14791 -91.60040 38090 ft 340 kts 282°
2026-05-06 22:56 39.16248 -91.65832 38092 ft 340 kts 282°
2026-05-06 22:57 39.17703 -91.71626 38092 ft 340 kts 282°
2026-05-06 22:57 39.19154 -91.77423 38087 ft 340 kts 282°
2026-05-06 22:58 39.20603 -91.83224 38099 ft 340 kts 282°
2026-05-06 22:58 39.22048 -91.89020 38088 ft 340 kts 282°
2026-05-06 22:59 39.23490 -91.94820 38101 ft 340 kts 282°
2026-05-06 22:59 39.24929 -92.00623 38090 ft 339 kts 282°
2026-05-06 23:00 39.26365 -92.06428 38090 ft 340 kts 282°
2026-05-06 23:00 39.27798 -92.12235 38102 ft 340 kts 282°
2026-05-06 23:01 39.29228 -92.18039 38098 ft 340 kts 282°
2026-05-06 23:01 39.30647 -92.23816 38108 ft 340 kts 282°
2026-05-06 23:02 39.32073 -92.29636 38107 ft 340 kts 282°
2026-05-06 23:02 39.33497 -92.35461 38105 ft 340 kts 282°
2026-05-06 23:03 39.34919 -92.41295 38093 ft 340 kts 282°
2026-05-06 23:03 39.36338 -92.47127 38114 ft 340 kts 282°
2026-05-06 23:04 39.37754 -92.52965 38110 ft 341 kts 282°
2026-05-06 23:04 39.39171 -92.58818 38105 ft 341 kts 282°
2026-05-06 23:05 39.40586 -92.64679 38112 ft 341 kts 281°
2026-05-06 23:05 39.41769 -92.69591 38112 ft 342 kts 281°
2026-05-06 23:06 39.43180 -92.75460 38114 ft 342 kts 281°
2026-05-06 23:06 39.44588 -92.81332 38117 ft 342 kts 281°
2026-05-06 23:07 39.45984 -92.87172 38121 ft 342 kts 281°
2026-05-06 23:07 39.47387 -92.93052 38121 ft 342 kts 281°
2026-05-06 23:08 39.48788 -92.98940 38123 ft 342 kts 281°
2026-05-06 23:08 39.50186 -93.04831 38122 ft 343 kts 281°
2026-05-06 23:09 39.51581 -93.10727 38125 ft 342 kts 281°
2026-05-06 23:09 39.52976 -93.16629 38121 ft 343 kts 281°
2026-05-06 23:10 39.54366 -93.22533 38128 ft 343 kts 281°
2026-05-06 23:10 39.55756 -93.28449 38126 ft 343 kts 281°
2026-05-06 23:11 39.57142 -93.34364 38128 ft 343 kts 281°
2026-05-06 23:11 39.58526 -93.40284 38127 ft 343 kts 281°
2026-05-06 23:12 39.59908 -93.46210 38131 ft 343 kts 281°
2026-05-06 23:12 39.61287 -93.52141 38136 ft 344 kts 280°
2026-05-06 23:13 39.62665 -93.58083 38135 ft 344 kts 280°
2026-05-06 23:13 39.64043 -93.64036 38134 ft 345 kts 280°
2026-05-06 23:14 39.65417 -93.69995 38126 ft 345 kts 280°
2026-05-06 23:14 39.66791 -93.75963 38132 ft 345 kts 280°
2026-05-06 23:15 39.68162 -93.81939 38133 ft 346 kts 280°
2026-05-06 23:15 39.69533 -93.87928 38130 ft 346 kts 280°
2026-05-06 23:16 39.70901 -93.93918 38139 ft 346 kts 280°
2026-05-06 23:16 39.72268 -93.99922 38139 ft 347 kts 280°
2026-05-06 23:17 39.73632 -94.05928 38148 ft 347 kts 279°
2026-05-06 23:17 39.74995 -94.11945 38149 ft 347 kts 280°
2026-05-06 23:18 39.76347 -94.17930 38155 ft 348 kts 279°
2026-05-06 23:18 39.77707 -94.23964 38148 ft 348 kts 279°
2026-05-06 23:19 39.79065 -94.30008 38152 ft 349 kts 279°
2026-05-06 23:19 39.80423 -94.36069 38147 ft 349 kts 279°
2026-05-06 23:20 39.81779 -94.42137 38146 ft 350 kts 279°
2026-05-06 23:20 39.83134 -94.48216 38140 ft 350 kts 279°
2026-05-06 23:21 39.84486 -94.54302 38134 ft 350 kts 279°
2026-05-06 23:21 39.85839 -94.60404 38118 ft 351 kts 279°
2026-05-06 23:22 39.87188 -94.66508 38120 ft 351 kts 279°
2026-05-06 23:22 39.88538 -94.72632 38111 ft 352 kts 279°
2026-05-06 23:23 39.89885 -94.78758 38113 ft 352 kts 279°
2026-05-06 23:23 39.91230 -94.84895 38119 ft 353 kts 279°
2026-05-06 23:24 39.92574 -94.91048 38111 ft 353 kts 279°
2026-05-06 23:24 39.93920 -94.97220 38113 ft 354 kts 279°
2026-05-06 23:25 39.95262 -95.03397 38115 ft 355 kts 279°
2026-05-06 23:25 39.96605 -95.09592 38116 ft 355 kts 279°
2026-05-06 23:26 39.97944 -95.15787 38113 ft 356 kts 279°
2026-05-06 23:26 39.99282 -95.21998 38111 ft 356 kts 279°
2026-05-06 23:27 40.00610 -95.28179 38107 ft 356 kts 279°
2026-05-06 23:27 40.01945 -95.34409 38096 ft 357 kts 279°
2026-05-06 23:28 40.03277 -95.40643 38102 ft 357 kts 279°
2026-05-06 23:28 40.04610 -95.46899 38096 ft 358 kts 279°
2026-05-06 23:29 40.05939 -95.53159 38095 ft 358 kts 279°
2026-05-06 23:29 40.07268 -95.59430 38098 ft 359 kts 279°
2026-05-06 23:30 40.08595 -95.65715 38103 ft 359 kts 279°
2026-05-06 23:30 40.09923 -95.72013 38094 ft 360 kts 279°
2026-05-06 23:31 40.11250 -95.78325 38102 ft 360 kts 279°
2026-05-06 23:31 40.12576 -95.84652 38099 ft 361 kts 279°
2026-05-06 23:32 40.13900 -95.90984 38107 ft 362 kts 279°
2026-05-06 23:32 40.15224 -95.97338 38108 ft 363 kts 279°
2026-05-06 23:33 40.16547 -96.03706 38116 ft 363 kts 279°
2026-05-06 23:33 40.17870 -96.10092 38105 ft 364 kts 279°
2026-05-06 23:34 40.19193 -96.16497 38110 ft 365 kts 279°
2026-05-06 23:34 40.20710 -96.22871 38112 ft 370 kts 283°
2026-05-06 23:35 40.22423 -96.29174 38109 ft 370 kts 282°
2026-05-06 23:35 40.24132 -96.35551 38104 ft 371 kts 282°
2026-05-06 23:36 40.25837 -96.41939 38106 ft 372 kts 282°
2026-05-06 23:36 40.27543 -96.48348 38102 ft 373 kts 282°
2026-05-06 23:37 40.29250 -96.54778 38105 ft 374 kts 282°
2026-05-06 23:37 40.30957 -96.61227 38101 ft 375 kts 282°
2026-05-06 23:38 40.32665 -96.67696 38106 ft 376 kts 282°
2026-05-06 23:38 40.34375 -96.74187 38106 ft 377 kts 282°
2026-05-06 23:39 40.36084 -96.80691 38113 ft 378 kts 282°
2026-05-06 23:39 40.37795 -96.87223 38098 ft 379 kts 282°
2026-05-06 23:40 40.39507 -96.93773 38101 ft 380 kts 282°
2026-05-06 23:40 40.41220 -97.00347 38106 ft 381 kts 283°
2026-05-06 23:41 40.42921 -97.06891 38101 ft 382 kts 283°
2026-05-06 23:41 40.44637 -97.13509 38104 ft 383 kts 283°
2026-05-06 23:42 40.46350 -97.20135 38105 ft 384 kts 283°
2026-05-06 23:42 40.48067 -97.26794 38100 ft 385 kts 283°
2026-05-06 23:43 40.49783 -97.33469 38104 ft 386 kts 283°
2026-05-06 23:43 40.51501 -97.40168 38101 ft 387 kts 283°
2026-05-06 23:44 40.53219 -97.46888 38107 ft 388 kts 283°
2026-05-06 23:44 40.54938 -97.53630 38108 ft 389 kts 283°
2026-05-06 23:45 40.56656 -97.60389 38180 ft 391 kts 284°
2026-05-06 23:45 40.58400 -97.67268 38095 ft 400 kts 284°
2026-05-06 23:46 40.60174 -97.74281 38101 ft 407 kts 284°
2026-05-06 23:46 40.61957 -97.81355 38104 ft 408 kts 285°
2026-05-06 23:47 40.63740 -97.88449 38100 ft 408 kts 285°
2026-05-06 23:47 40.65521 -97.95555 38098 ft 409 kts 285°
2026-05-06 23:48 40.67287 -98.02625 38095 ft 410 kts 285°
2026-05-06 23:48 40.69063 -98.09756 38099 ft 410 kts 285°
2026-05-06 23:49 40.70838 -98.16897 38103 ft 410 kts 285°
2026-05-06 23:49 40.72611 -98.24052 38103 ft 411 kts 285°
2026-05-06 23:50 40.74381 -98.31211 38103 ft 411 kts 285°
2026-05-06 23:50 40.75835 -98.38457 38095 ft 406 kts 271°
2026-05-06 23:50 40.75935 -98.42184 38099 ft 408 kts 272°
2026-05-06 23:51 40.76161 -98.49666 38105 ft 409 kts 271°
2026-05-06 23:51 40.76328 -98.57166 38106 ft 409 kts 271°
2026-05-06 23:52 40.76477 -98.64670 38105 ft 410 kts 271°
2026-05-06 23:52 40.76620 -98.72196 38106 ft 410 kts 271°
2026-05-06 23:53 40.76759 -98.79722 38102 ft 411 kts 271°
2026-05-06 23:53 40.76893 -98.87261 38098 ft 411 kts 271°
2026-05-06 23:54 40.77022 -98.94802 38100 ft 412 kts 271°
2026-05-06 23:54 40.77146 -99.02353 38100 ft 412 kts 271°
2026-05-06 23:55 40.77246 -99.08637 38095 ft 412 kts 271°
2026-05-06 23:55 40.77361 -99.16198 38102 ft 413 kts 271°
2026-05-06 23:56 40.77489 -99.25001 38104 ft 413 kts 271°
2026-05-06 23:56 40.77578 -99.31348 38108 ft 413 kts 271°
2026-05-06 23:57 40.77678 -99.38930 38109 ft 414 kts 271°
2026-05-06 23:57 40.77775 -99.46523 38103 ft 414 kts 271°
2026-05-06 23:58 40.77866 -99.54126 38104 ft 415 kts 271°
2026-05-06 23:58 40.77951 -99.61692 38103 ft 415 kts 271°
2026-05-06 23:59 40.78033 -99.69313 38102 ft 416 kts 271°
2026-05-06 23:59 40.78109 -99.76939 38100 ft 416 kts 271°
2026-05-07 00:00 40.78181 -99.84582 38102 ft 417 kts 271°
2026-05-07 00:00 40.78247 -99.92235 38100 ft 417 kts 271°
2026-05-07 00:01 40.78309 -99.99896 38105 ft 418 kts 271°
2026-05-07 00:01 40.78365 -100.07562 38103 ft 418 kts 271°
2026-05-07 00:02 40.78417 -100.15240 38106 ft 419 kts 271°
2026-05-07 00:02 40.78463 -100.22931 38107 ft 419 kts 271°
2026-05-07 00:03 40.78505 -100.30626 38112 ft 420 kts 271°
2026-05-07 00:03 40.78541 -100.38327 38108 ft 420 kts 271°
2026-05-07 00:04 40.78573 -100.46047 38112 ft 421 kts 271°
2026-05-07 00:04 40.78602 -100.53775 38113 ft 421 kts 271°
2026-05-07 00:05 40.78625 -100.61508 38117 ft 422 kts 271°
2026-05-07 00:05 40.78483 -100.69255 38117 ft 423 kts 266°
2026-05-07 00:06 40.77882 -100.73059 38121 ft 426 kts 254°
2026-05-07 00:06 40.76875 -100.76751 38121 ft 429 kts 253°
2026-05-07 00:06 40.75487 -100.84332 38116 ft 426 kts 260°
2026-05-07 00:07 40.74200 -100.91963 38121 ft 427 kts 260°
2026-05-07 00:07 40.72892 -100.99604 38125 ft 427 kts 260°
2026-05-07 00:08 40.71577 -101.07244 38124 ft 428 kts 260°
2026-05-07 00:08 40.70249 -101.14897 38123 ft 428 kts 260°
2026-05-07 00:09 40.68914 -101.22550 38126 ft 429 kts 260°
2026-05-07 00:09 40.67570 -101.30214 38123 ft 429 kts 260°
2026-05-07 00:10 40.66221 -101.37878 38119 ft 430 kts 260°
2026-05-07 00:10 40.64864 -101.45557 38118 ft 430 kts 260°
2026-05-07 00:11 40.63502 -101.53231 38120 ft 431 kts 260°
2026-05-07 00:11 40.62141 -101.60867 38120 ft 431 kts 260°
2026-05-07 00:12 40.60766 -101.68555 38118 ft 432 kts 260°
2026-05-07 00:12 40.59383 -101.76249 38119 ft 432 kts 260°
2026-05-07 00:13 40.57995 -101.83945 38121 ft 433 kts 260°
2026-05-07 00:13 40.56600 -101.91649 38122 ft 433 kts 260°
2026-05-07 00:14 40.55190 -101.99361 38122 ft 434 kts 259°
2026-05-07 00:14 40.53763 -102.07069 38123 ft 434 kts 259°
2026-05-07 00:15 40.52332 -102.14782 38134 ft 435 kts 259°
2026-05-07 00:15 40.50893 -102.22503 38127 ft 435 kts 259°
2026-05-07 00:16 40.49449 -102.30221 38113 ft 435 kts 259°
2026-05-07 00:16 40.48729 -102.34060 37573 ft 432 kts 260°
2026-05-07 00:16 40.48008 -102.37898 36773 ft 434 kts 260°
2026-05-07 00:17 40.47281 -102.41761 36051 ft 436 kts 261°
2026-05-07 00:17 40.46551 -102.45629 35350 ft 437 kts 261°
2026-05-07 00:17 40.45811 -102.49540 34602 ft 447 kts 262°
2026-05-07 00:17 40.45054 -102.53537 33757 ft 455 kts 262°
2026-05-07 00:18 40.44284 -102.57591 32861 ft 461 kts 262°
2026-05-07 00:18 40.43502 -102.61697 32188 ft 467 kts 263°
2026-05-07 00:18 40.42715 -102.65821 31931 ft 465 kts 263°
2026-05-07 00:18 40.41924 -102.69931 31633 ft 464 kts 263°
2026-05-07 00:19 40.41134 -102.74031 31274 ft 462 kts 263°
2026-05-07 00:19 40.40348 -102.78108 30829 ft 460 kts 263°
2026-05-07 00:19 40.39564 -102.82167 30370 ft 458 kts 264°
2026-05-07 00:19 40.38781 -102.86205 29871 ft 456 kts 264°
2026-05-07 00:20 40.38012 -102.90162 29407 ft 452 kts 263°
2026-05-07 00:20 40.37746 -102.91531 29259 ft 451 kts 263°
2026-05-07 00:20 40.36972 -102.95510 28835 ft 448 kts 263°
2026-05-07 00:20 40.36205 -102.99451 28413 ft 445 kts 263°
2026-05-07 00:21 40.35445 -103.03364 27909 ft 440 kts 263°
2026-05-07 00:21 40.34695 -103.07221 27517 ft 435 kts 263°
2026-05-07 00:21 40.33947 -103.11063 27111 ft 434 kts 263°
2026-05-07 00:21 40.33202 -103.14877 26695 ft 431 kts 263°
2026-05-07 00:22 40.32460 -103.18671 26284 ft 428 kts 263°
2026-05-07 00:22 40.31721 -103.22443 25876 ft 426 kts 262°
2026-05-07 00:22 40.30987 -103.26184 25469 ft 423 kts 262°
2026-05-07 00:22 40.30250 -103.29899 25001 ft 420 kts 262°
2026-05-07 00:23 40.29518 -103.33577 24612 ft 415 kts 262°
2026-05-07 00:23 40.28795 -103.37215 24231 ft 413 kts 262°
2026-05-07 00:23 40.28069 -103.40855 23841 ft 412 kts 262°
2026-05-07 00:23 40.27345 -103.44482 23388 ft 410 kts 262°
2026-05-07 00:24 40.26626 -103.48071 22960 ft 406 kts 261°
2026-05-07 00:24 40.25914 -103.51623 22569 ft 402 kts 261°
2026-05-07 00:24 40.25208 -103.55144 22194 ft 397 kts 261°
2026-05-07 00:24 40.24521 -103.58615 21846 ft 391 kts 261°
2026-05-07 00:25 40.23844 -103.62039 21577 ft 389 kts 261°
2026-05-07 00:25 40.23168 -103.65455 21293 ft 387 kts 261°
2026-05-07 00:25 40.22493 -103.68854 20986 ft 384 kts 261°
2026-05-07 00:25 40.21824 -103.72215 20688 ft 379 kts 261°
2026-05-07 00:26 40.21167 -103.75511 20393 ft 367 kts 261°
2026-05-07 00:26 40.20538 -103.78664 20129 ft 350 kts 261°
2026-05-07 00:26 40.19936 -103.81676 19868 ft 335 kts 261°
2026-05-07 00:26 40.19350 -103.84606 19601 ft 332 kts 261°
2026-05-07 00:27 40.18768 -103.87513 19328 ft 328 kts 261°
2026-05-07 00:27 40.18175 -103.90333 19048 ft 327 kts 255°
2026-05-07 00:27 40.17097 -103.92970 18769 ft 330 kts 244°
2026-05-07 00:27 40.15884 -103.95560 18506 ft 330 kts 244°
2026-05-07 00:28 40.14691 -103.98107 18222 ft 328 kts 244°
2026-05-07 00:28 40.13515 -104.00605 17943 ft 326 kts 244°
2026-05-07 00:28 40.12312 -104.03153 17677 ft 324 kts 244°
2026-05-07 00:28 40.11146 -104.05619 17425 ft 323 kts 244°
2026-05-07 00:29 40.09968 -104.08107 17173 ft 321 kts 244°
2026-05-07 00:29 40.08797 -104.10579 16916 ft 319 kts 244°
2026-05-07 00:30 40.05307 -104.17932 15961 ft 315 kts 243°
2026-05-07 00:30 40.04160 -104.20344 15703 ft 310 kts 243°
2026-05-07 00:30 40.03031 -104.22719 15456 ft 307 kts 243°
2026-05-07 00:30 40.01908 -104.25075 15209 ft 305 kts 243°
2026-05-07 00:31 40.00787 -104.27427 14963 ft 305 kts 243°
2026-05-07 00:31 39.99668 -104.29774 14721 ft 304 kts 243°
2026-05-07 00:31 39.98557 -104.32101 14473 ft 301 kts 243°
2026-05-07 00:31 39.97452 -104.34413 14238 ft 299 kts 243°
2026-05-07 00:32 39.96353 -104.36710 13992 ft 298 kts 243°
2026-05-07 00:32 39.95262 -104.38991 13722 ft 296 kts 243°
2026-05-07 00:32 39.94178 -104.41258 13476 ft 294 kts 243°
2026-05-07 00:32 39.93097 -104.43519 13204 ft 293 kts 243°
2026-05-07 00:33 39.92027 -104.45757 12973 ft 288 kts 243°
2026-05-07 00:33 39.90919 -104.47913 12712 ft 287 kts 232°
2026-05-07 00:33 39.89291 -104.49450 12391 ft 296 kts 206°
2026-05-07 00:33 39.87267 -104.49974 12103 ft 300 kts 184°
2026-05-07 00:34 39.85187 -104.49995 11819 ft 297 kts 184°
2026-05-07 00:34 39.83125 -104.50034 11533 ft 295 kts 184°
2026-05-07 00:34 39.81078 -104.50070 11279 ft 293 kts 184°
2026-05-07 00:34 39.79053 -104.50099 11021 ft 288 kts 184°
2026-05-07 00:35 39.77092 -104.50115 10968 ft 275 kts 184°
2026-05-07 00:35 39.75234 -104.50130 10985 ft 259 kts 184°
2026-05-07 00:35 39.73474 -104.50145 10975 ft 247 kts 184°
2026-05-07 00:35 39.71801 -104.50159 10970 ft 235 kts 184°
2026-05-07 00:36 39.70178 -104.50173 10977 ft 232 kts 184°
2026-05-07 00:36 39.68618 -104.50495 10936 ft 222 kts 212°
2026-05-07 00:36 39.67615 -104.51845 10866 ft 204 kts 255°
2026-05-07 00:36 39.67310 -104.53629 10834 ft 204 kts 265°
2026-05-07 00:37 39.67101 -104.55461 10608 ft 206 kts 265°
2026-05-07 00:37 39.66900 -104.57307 10360 ft 207 kts 265°
2026-05-07 00:37 39.66703 -104.59152 10106 ft 206 kts 265°
2026-05-07 00:37 39.66861 -104.60962 9628 ft 203 kts 296°
2026-05-07 00:38 39.67748 -104.62337 9197 ft 200 kts 323°
2026-05-07 00:38 39.68959 -104.63269 8537 ft 208 kts 334°
2026-05-07 00:38 39.70340 -104.63937 7985 ft 213 kts 343°
2026-05-07 00:38 39.71780 -104.64221 7715 ft 207 kts 355°
2026-05-07 00:39 39.73207 -104.64192 7535 ft 209 kts 359°
2026-05-07 00:39 39.74655 -104.64217 7375 ft 209 kts 357°
2026-05-07 00:39 39.76110 -104.64118 7175 ft 210 kts
2026-05-07 00:39 39.77581 -104.64071 6930 ft 203 kts 353°
2026-05-07 00:40 39.78920 -104.64185 6606 ft 191 kts 356°
2026-05-07 00:40 39.80232 -104.64177 6098 ft 183 kts
2026-05-07 00:40 39.81449 -104.64179 5784 ft 167 kts
2026-05-07 00:40 39.82599 -104.64165 5508 ft 166 kts
2026-05-07 00:41 39.83369 -104.64162 5387 ft 161 kts
2026-05-07 00:41 39.84589 -104.64149 5367 ft 99 kts
2026-05-07 00:41 39.85228 -104.64140 5368 ft 89 kts
2026-05-07 00:41 39.85820 -104.64132 5369 ft 81 kts
2026-05-07 00:42 39.86303 -104.64130 5368 ft 39 kts
2026-05-07 00:42 39.86488 -104.64228 5369 ft 28 kts 273°
2026-05-07 00:42 39.86489 -104.64486 5369 ft 29 kts 269°
2026-05-07 00:42 39.86493 -104.64749 5369 ft 30 kts 271°
2026-05-07 00:43 39.86494 -104.65020 5369 ft 31 kts 270°
2026-05-07 00:43 39.86495 -104.65309 5367 ft 33 kts 271°
2026-05-07 00:43 39.86499 -104.65614 5367 ft 34 kts 270°
2026-05-07 00:43 39.86500 -104.65926 5369 ft 35 kts 271°
2026-05-07 00:44 39.86501 -104.66134 5366 ft 34 kts 271°
2026-05-07 00:44 39.86503 -104.66286 5368 ft 7 kts 271°
2026-05-07 00:44 39.86505 -104.66403 5368 ft 20 kts 271°
2026-05-07 00:44 39.86474 -104.66604 5368 ft 25 kts 259°
2026-05-07 00:45 39.86472 -104.66836 5368 ft 26 kts 269°
2026-05-07 00:45 39.86461 -104.67074 5367 ft 27 kts 259°
2026-05-07 00:45 39.86422 -104.67315 5367 ft 26 kts 258°
2026-05-07 00:45 39.86401 -104.67448 5366 ft 11 kts 225°
2026-05-07 00:46 39.86358 -104.67473 5365 ft 0 kts 198°